(264493) = 2001 PS50

Discovered at Ondrejov on 2001-08-15 by Ondrejov.

Orbit

Orbit type: Main Belt

Note: WebGL enabled browser required.

epoch2024-03-31.0
epoch JD2460400.5
perihelion date2022-09-19.28499
perihelion JD2459841.78499
argument of perihelion (°)181.56289
ascending node (°)189.31770
inclination (°)1.60735
eccentricity0.2004939
perihelion distance (AU)2.0629073
Tisserand w.r.t. Jupiter3.4
ΔV w.r.t. Earth (km/sec)9.0
semimajor axis (AU)2.5802270
mean anomaly (°)132.86400
mean daily motion (°/day)0.23780280
aphelion distance (AU)3.098
period (years)4.14
P-vector [x]0.98202448
P-vector [y]0.17348095
P-vector [z]0.07437936
Q-vector [x]-0.18869898
Q-vector [y]0.91178555
Q-vector [z]0.36474622
absolute magnitude17.37
phase slope0.15
uncertainty0
referenceMPEC 2024-E73
observations used353
oppositions15
arc length (days)8237
first opposition used2001
last opposition used2024
residual rms (arc-secs)0.74
perturbers coarse indicatorM-v
perturbers precise indicator003Ek
first observation date used2001-08-15.0
last observation date used2024-03-05.0
computer nameMPCLINUX
Minimum Orbit Intersection Distances (in AU)
for orbit epoch: 2460400.5, reference: E2024-E73
Mercury1.71074
Venus1.33867
Earth1.06275
Mars0.64917
Jupiter2.35698
Saturn6.34959
Uranus15.379
Neptune27.4811

Observations

365 total observations over interval: 2001 08 15.91494 – 2024 03 05.239923
These data are available for download (format description).

Date (UT) J2000 RA J2000 Dec Magn Location Ref
2001 08 15.91494 21 58 04.19 -10 12 51.9   557 – Ondrejov MPS 33476
2001 08 15.92156 21 58 03.81 -10 12 53.6   557 – Ondrejov MPS 33476
2001 08 15.93199 21 58 03.33 -10 12 56.0 20.0 V 557 – Ondrejov MPS 33476
2001 08 15.93419 21 58 03.20 -10 12 56.3   557 – Ondrejov MPS 33476
2001 08 15.93640 21 58 03.01 -10 12 57.4   557 – Ondrejov MPS 33476
2001 08 15.93861 21 58 02.96 -10 12 58.3   557 – Ondrejov MPS 33476
2001 08 16.18950 21 57 50.84 -10 14 12.1 19.6   644 – Palomar Mountain/NEAT MPS 34561
2001 08 16.20044 21 57 50.28 -10 14 15.3 19.9   644 – Palomar Mountain/NEAT MPS 34561
2001 08 16.21137 21 57 49.73 -10 14 19.0 19.6   644 – Palomar Mountain/NEAT MPS 34561
2001 08 18.97756 21 55 31.58 -10 28 31.0   557 – Ondrejov MPS 33476
2001 08 19.00350 21 55 30.24 -10 28 40.3   557 – Ondrejov MPS 33476
2001 08 19.03671 21 55 28.44 -10 28 49.5 20 V 557 – Ondrejov MPS 33476
2001 08 21.15236 21 53 42.13 -10 39 43.5 18.0 R 807 – Cerro Tololo Observatory, La Serena MPS 37737
2001 08 21.22642 21 53 38.20 -10 40 06.8   807 – Cerro Tololo Observatory, La Serena MPS 37737
2001 08 21.32585 21 53 33.26 -10 40 45.6 19.8 V 691 – Steward Observatory, Kitt Peak-Spacewatch MPS 34561
2001 08 21.34794 21 53 32.06 -10 40 52.4 19.8 V 691 – Steward Observatory, Kitt Peak-Spacewatch MPS 34561
2001 08 21.36980 21 53 30.91 -10 40 59.4 20.1 V 691 – Steward Observatory, Kitt Peak-Spacewatch MPS 34561
2001 09 18.10960 21 34 48.82 -12 48 22.0 20.9 V 691 – Steward Observatory, Kitt Peak-Spacewatch MPS 35904
2001 09 18.13103 21 34 48.28 -12 48 25.8 20.7 V 691 – Steward Observatory, Kitt Peak-Spacewatch MPS 35904
2001 09 18.15332 21 34 47.72 -12 48 29.8 20.5 V 691 – Steward Observatory, Kitt Peak-Spacewatch MPS 35904
2004 04 26.32211 13 21 40.40 -07 51 36.2 22.2 V 568 – Maunakea MPS 151850
2004 04 26.34336 13 21 39.34 -07 51 29.8 22.4 V 568 – Maunakea MPS 151850
2004 04 26.36970 13 21 38.04 -07 51 21.7 22.5 V 568 – Maunakea MPS 151850
2004 04 27.31550 13 20 53.10 -07 46 35.0 22.5 V 568 – Maunakea MPS 151850
2005 06 29.28608 20 32 39.74 -16 10 58.7 21.0 V 691 – Steward Observatory, Kitt Peak-Spacewatch MPS 137392
2005 06 29.30352 20 32 39.16 -16 11 00.4 20.7 V 691 – Steward Observatory, Kitt Peak-Spacewatch MPS 137392
2005 06 29.32088 20 32 38.57 -16 11 02.0 20.6 V 691 – Steward Observatory, Kitt Peak-Spacewatch MPS 137392
2005 07 04.34635 20 29 41.13 -16 19 21.3 20.6 V G96 – Mt. Lemmon Survey MPS 137392
2005 07 04.35367 20 29 40.84 -16 19 21.7 20.5 V G96 – Mt. Lemmon Survey MPS 137392
2005 07 04.36103 20 29 40.52 -16 19 22.7 20.6 V G96 – Mt. Lemmon Survey MPS 137392
2005 07 04.36833 20 29 40.27 -16 19 23.3 20.3 V G96 – Mt. Lemmon Survey MPS 137392
2006 12 13.40289 08 02 48.37 +17 59 43.1 21.1 V G96 – Mt. Lemmon Survey MPS 191834
2006 12 13.40857 08 02 48.15 +17 59 43.4 21.2 V G96 – Mt. Lemmon Survey MPS 191834
2006 12 13.41413 08 02 47.97 +17 59 43.3 21.1 V G96 – Mt. Lemmon Survey MPS 191834
2006 12 13.41983 08 02 47.79 +17 59 43.9 21.6 V G96 – Mt. Lemmon Survey MPS 191834
2006 12 13.42555 08 02 47.56 +17 59 44.7 21.7 V 691 – Steward Observatory, Kitt Peak-Spacewatch MPS 191834
2006 12 13.44293 08 02 46.94 +17 59 46.0 21.2 V 691 – Steward Observatory, Kitt Peak-Spacewatch MPS 191835
2006 12 13.46032 08 02 46.33 +17 59 47.0 21.2 V 691 – Steward Observatory, Kitt Peak-Spacewatch MPS 191835
2006 12 27.36611 07 52 23.09 +18 23 03.3   691 – Steward Observatory, Kitt Peak-Spacewatch MPS 191835
2006 12 27.38356 07 52 22.08 +18 23 05.9   691 – Steward Observatory, Kitt Peak-Spacewatch MPS 191835
2006 12 27.40093 07 52 21.11 +18 23 07.9   691 – Steward Observatory, Kitt Peak-Spacewatch MPS 191835
2007 01 27.30605 07 21 34.45 +19 40 37.1 20.7 V G96 – Mt. Lemmon Survey MPS 197987
2007 01 27.31211 07 21 34.12 +19 40 38.2 20.6 V G96 – Mt. Lemmon Survey MPS 197987
2007 01 27.31816 07 21 33.76 +19 40 39.0 20.5 V G96 – Mt. Lemmon Survey MPS 197987
2007 01 27.32429 07 21 33.44 +19 40 39.7 20.5 V G96 – Mt. Lemmon Survey MPS 197987
2007 02 09.09908 07 12 05.20 +20 07 19.7   691 – Steward Observatory, Kitt Peak-Spacewatch MPS 198619
2007 02 09.11547 07 12 04.61 +20 07 21.5   691 – Steward Observatory, Kitt Peak-Spacewatch MPS 198619
2007 02 09.13179 07 12 04.03 +20 07 23.5   691 – Steward Observatory, Kitt Peak-Spacewatch MPS 198619
2007 02 21.24022 07 07 09.08 +20 25 57.7 21.6 V G96 – Mt. Lemmon Survey MPS 200268
2007 02 21.24584 07 07 09.01 +20 25 58.2 21.4 V G96 – Mt. Lemmon Survey MPS 200268
2007 02 21.25149 07 07 08.94 +20 25 58.4 21.0 V G96 – Mt. Lemmon Survey MPS 200268
2007 02 21.25708 07 07 08.83 +20 25 59.0 21.8 V G96 – Mt. Lemmon Survey MPS 200268
2008 04 03.31581 12 52 32.05 -05 25 27.6 21.1 V G96 – Mt. Lemmon Survey MPS 244567
2008 04 03.32360 12 52 31.65 -05 25 24.4 21.0 V G96 – Mt. Lemmon Survey MPS 244567
2008 04 03.33145 12 52 31.22 -05 25 22.0 21.2 V G96 – Mt. Lemmon Survey MPS 244567
2008 04 03.33933 12 52 30.82 -05 25 20.2 21.7 V G96 – Mt. Lemmon Survey MPS 244567
2010 11 28.33427 06 49 03.06 +20 28 51.6 21.4 V 691 – Steward Observatory, Kitt Peak-Spacewatch MPS 358707
2010 11 28.35203 06 49 02.41 +20 28 51.3 21.3 V 691 – Steward Observatory, Kitt Peak-Spacewatch MPS 358707
2010 11 28.36979 06 49 01.76 +20 28 51.4 20.9 V 691 – Steward Observatory, Kitt Peak-Spacewatch MPS 358707
2011 01 14.22197 06 04 51.81 +20 51 43.3 20.3 V G96 – Mt. Lemmon Survey MPS 366913
2011 01 14.22902 06 04 51.45 +20 51 43.2 20.3 V G96 – Mt. Lemmon Survey MPS 366913
2011 01 14.23615 06 04 51.09 +20 51 43.7 20.2 V G96 – Mt. Lemmon Survey MPS 366913
2011 01 14.24330 06 04 50.73 +20 51 44.0 20.4 V G96 – Mt. Lemmon Survey MPS 366913
2012 03 21.37046 12 15 36.72 -01 58 05.4 21.8 V G96 – Mt. Lemmon Survey MPS 418339
2012 03 21.37568 12 15 36.46 -01 58 03.1 21.2 V G96 – Mt. Lemmon Survey MPS 418339
2012 03 21.38089 12 15 36.18 -01 58 01.3 21.4 V G96 – Mt. Lemmon Survey MPS 418339
2012 03 21.38610 12 15 35.92 -01 57 59.2 21.0 V G96 – Mt. Lemmon Survey MPS 418339
2012 03 24.19562 12 13 14.17 -01 41 25.5 21.1 V 691 – Steward Observatory, Kitt Peak-Spacewatch MPS 420143
2012 03 24.21333 12 13 13.20 -01 41 19.5 21.7 V 691 – Steward Observatory, Kitt Peak-Spacewatch MPS 420143
2012 03 24.23106 12 13 12.29 -01 41 13.1 20.9 V 691 – Steward Observatory, Kitt Peak-Spacewatch MPS 420143
2012 04 18.076771 11 54 21.65 +00 32 18.5 23.2 g 309 – Cerro Paranal MPS 804564
2012 04 18.079329 11 54 21.56 +00 32 19.2 23.3 g 309 – Cerro Paranal MPS 804564
2012 04 18.081910 11 54 21.47 +00 32 19.9 23.4 g 309 – Cerro Paranal MPS 804564
2014 11 26.36532 05 03 06.241 +20 18 54.52 20.1 w F51 – Pan-STARRS 1, Haleakala MPS 551197
2014 11 26.37728 05 03 05.494 +20 18 53.17 20.1 w F51 – Pan-STARRS 1, Haleakala MPS 551197
2014 11 27.51245 05 01 56.886 +20 16 36.74 19.9 w F51 – Pan-STARRS 1, Haleakala MPS 551197
2014 11 27.52574 05 01 56.048 +20 16 35.12 19.8 w F51 – Pan-STARRS 1, Haleakala MPS 551197
2014 11 27.53898 05 01 55.216 +20 16 33.42 19.9 w F51 – Pan-STARRS 1, Haleakala MPS 551197
2014 11 27.55222 05 01 54.378 +20 16 31.79 19.8 w F51 – Pan-STARRS 1, Haleakala MPS 551197
2014 12 02.37691 04 56 57.349 +20 06 48.44 19.7 i F51 – Pan-STARRS 1, Haleakala MPS 551197
2014 12 02.38889 04 56 56.592 +20 06 46.93 19.5 i F51 – Pan-STARRS 1, Haleakala MPS 551197
2014 12 02.40087 04 56 55.807 +20 06 45.71 19.4 i F51 – Pan-STARRS 1, Haleakala MPS 551197
2014 12 13.29473 04 45 45.197 +19 45 44.29 19.9 w F51 – Pan-STARRS 1, Haleakala MPS 552858
2014 12 13.30734 04 45 44.430 +19 45 43.04 19.8 w F51 – Pan-STARRS 1, Haleakala MPS 552858
2014 12 13.32002 04 45 43.651 +19 45 41.76 19.8 w F51 – Pan-STARRS 1, Haleakala MPS 552858
2014 12 13.33272 04 45 42.874 +19 45 40.55 19.8 w F51 – Pan-STARRS 1, Haleakala MPS 552858
2014 12 21.16491 04 38 31.91 +19 32 59.8 20.7 R H15 – ISON-NM Observatory, Mayhill MPS 559863
2014 12 21.17621 04 38 31.31 +19 32 57.3 20.5 R H15 – ISON-NM Observatory, Mayhill MPS 559863
2014 12 21.18715 04 38 30.65 +19 32 56.9 20.6 R H15 – ISON-NM Observatory, Mayhill MPS 559863
2014 12 28.92293 04 32 47.34 +19 23 57.2 20.5   J43 – Oukaimeden Observatory, Marrakech MPS 560785
2014 12 28.93922 04 32 46.68 +19 23 56.5 20.4   J43 – Oukaimeden Observatory, Marrakech MPS 560785
2014 12 28.95552 04 32 46.05 +19 23 55.7 20.1   J43 – Oukaimeden Observatory, Marrakech MPS 560785
2014 12 28.97182 04 32 45.31 +19 23 54.8 20.3   J43 – Oukaimeden Observatory, Marrakech MPS 560785
2015 01 06.37790 04 28 31.587 +19 19 16.65 20.5 i F51 – Pan-STARRS 1, Haleakala MPS 586860
